Regional Weather Roundup
Issued by NWS Lake Charles, LA

Home | Current Version | Previous Version | Text Only | Print | Product List | Glossary On
Versions: 1 2 3 4 5 6 7 8 9 10 11 12 13 14 15 16 17 18 19 20 21 22 23 24 25 26 27 28 29 30 31 32 33 34 35 36 37 38 39 40 41 42 43 44 45 46 47 48 49 50
871
ASUS44 KLCH 061110
RWRLCH
REGIONAL WEATHER ROUNDUP
NATIONAL WEATHER SERVICE LAKE CHARLES LA
600 AM CDT FRI MAY 06 2016

Note: "fair" indicates few or no clouds below 12,000 feet with no
significant weather and/or obstructions to visibility.


ACROSS SOUTHEAST TEXAS

CITY           SKY/WX    TMP DP  RH WIND       PRES   REMARKS
BEAUMONT       CLEAR     56  53  90 CALM      30.01R
BEAUMONT CITY  FAIR      58  55  90 CALM      30.03R
ORANGE         SUNNY     53  51  93 CALM      30.03S FOG
JASPER         CLEAR     51  50  97 CALM      30.04S
$$

ACROSS CENTRAL LOUISIANA

CITY           SKY/WX    TMP DP  RH WIND       PRES   REMARKS
LEESVILLE      PTCLDY    52  50  94 NW1       30.01R
FULLERTON      FAIR      51  48  89 CALM      29.99S
ALEXANDRIA INT CLEAR     54  54 100 CALM      30.01S
ESLER FIELD    CLEAR     51  48  89 CALM      30.03R
DERIDDER       FAIR      54  52  95 CALM      30.03R
OAKDALE        SUNNY     49  49  98 CALM      30.01R
OPELOUSAS      FAIR     N/A N/A N/A CALM      30.02R
$$

ACROSS SOUTHWEST AND SOUTH CENTRAL LOUISIANA

CITY           SKY/WX    TMP DP  RH WIND       PRES   REMARKS
SULPHUR        SUNNY     56  53  90 CALM      30.02S
LAKE CHARLES   CLEAR     55  53  93 CALM      30.01R
CHENNAULT INT  CLEAR     55  52  88 CALM      30.01R
CAMERON PHI      N/A     64  57  77 NE3       30.03R
DEQUINCY       FAIR      51  51 100 CALM      30.02R
JENNINGS       FAIR      57  54  88 CALM      30.01R
LAFAYETTE      PTCLDY    57  50  77 NE5       30.02R
NEW IBERIA     PTCLDY    55  51  86 CALM      30.02R
ABBEVILLE      FAIR      52  52 100 CALM      30.02R
PATTERSON      NOT AVBL
SALT POINT       N/A     59  54  83 CALM      30.00R
$$

SELECTED SITES ACROSS THE REGION

CITY           SKY/WX    TMP DP  RH WIND       PRES   REMARKS
HOUSTON BUSH   PTCLDY    57  52  83 CALM      30.03R
HOUSTON HOBBY  PTCLDY    63  53  70 E3        30.02R
GALVESTON      CLEAR     65  57  75 N7        30.03R
COLLEGE STAT   CLEAR     60  50  69 E5        30.04R
CONROE         CLEAR     50  49  96 CALM      30.03S
HUNTSVILLE     CLEAR     56  51  84 CALM      30.03S
LUFKIN         CLEAR     51  50  96 CALM      30.03R
SHREVEPORT     CLEAR     54  51  90 NE3       30.02R
MONROE         CLEAR     55  48  77 NE6       30.06R
NATCHEZ MS     CLEAR     46  43  87 CALM      30.03R
BATON ROUGE    CLEAR     52  47  83 NE5       30.02R
N.O. INTL ARPT PTCLDY    65  45  48 NE9       30.00S
SLIDELL        CLEAR     49  48  97 CALM      30.01R
$$

MARINE REPORTS

STATION/POSITION TIME  SKY/WX   TEMP    WIND        PRES    VSBY
                                AIR SEA DIR/SP/G
                 (UTC)          (F)     (DEG/KT/KT) (MB)    (MI)
BUOY 30 S HIGH I 1050            75 75   60/ 10/ 12 1015.9R
WVE H/P(F/S)=  2/ 3

SEA RIM ST PARK  1100            67      30/  4/  5 1017.0R
PORT ARTHUR      1000               74   20/  4/  5 1016.2R
SABINE PASS N    1000            68 76   20/  6/  8 1017.3R
TEXAS POINT      NOT AVBL
CALCASIEU PASS   1000            66 75   60/  6/  6 1015.0R
LK CHARLES BEACH 1000            62 74              1016.4R
MARSH ISLAND     1000            70     160/  8/  9   N/A
FRESH WATER LOCK 1000            64 76   40/  3/  4 1016.4R
AMERADA PASS     1000            62 72   40/  2/  4 1015.4R
$$




USA.gov is the U.S. government's official web portal to all federal, state and local government web resources and services.